�������l�o���
Date,Time,MP-1(��Sv/h),MP-2(��Sv/h),MP-3(��Sv/h),MP-4(��Sv/h),MP-5(��Sv/h),MP-6(��Sv/h),MP-7(��Sv/h),����,����(m/s),���J
2019/12/28,00:00,0.180,0.161,0.275,0.255,0.253,0.139,0.085,-,CALM,��
2019/12/28,00:10,0.181,0.163,0.275,0.256,0.252,0.140,0.086,-,CALM,��
2019/12/28,00:20,0.181,0.163,0.274,0.255,0.251,0.139,0.086,-,CALM,��
2019/12/28,00:30,0.181,0.162,0.274,0.254,0.252,0.140,0.086,-,CALM,��
2019/12/28,00:40,0.180,0.162,0.275,0.255,0.251,0.138,0.086,���k��,0.9,��
2019/12/28,00:50,0.181,0.163,0.274,0.256,0.251,0.140,0.086,-,CALM,��
2019/12/28,01:00,0.181,0.162,0.275,0.256,0.251,0.139,0.086,���k��,1.1,��
2019/12/28,01:10,0.180,0.161,0.274,0.255,0.253,0.139,0.085,�k�k��,1.9,��
2019/12/28,01:20,0.181,0.162,0.275,0.255,0.252,0.139,0.086,�k�k��,2.9,��
2019/12/28,01:30,0.180,0.162,0.275,0.255,0.252,0.140,0.085,�k�k��,3.1,��
2019/12/28,01:40,0.179,0.162,0.273,0.255,0.252,0.139,0.086,�k�k��,3.2,��
2019/12/28,01:50,0.181,0.162,0.274,0.255,0.251,0.139,0.087,�k�k��,2.9,��
2019/12/28,02:00,0.180,0.163,0.274,0.255,0.252,0.139,0.086,�k��,3.8,��
2019/12/28,02:10,0.180,0.162,0.275,0.255,0.252,0.139,0.086,�k��,3.8,��
2019/12/28,02:20,0.181,0.162,0.274,0.254,0.251,0.140,0.085,�k�k��,3.4,��
2019/12/28,02:30,0.182,0.162,0.275,0.255,0.252,0.140,0.086,�k,2.1,��
2019/12/28,02:40,0.181,0.162,0.274,0.254,0.251,0.139,0.085,�k,1.9,��
2019/12/28,02:50,0.181,0.162,0.276,0.256,0.253,0.139,0.086,�k�k��,1.8,��
2019/12/28,03:00,0.182,0.162,0.275,0.254,0.252,0.140,0.086,�k��,2.0,��
2019/12/28,03:10,0.180,0.162,0.275,0.255,0.251,0.138,0.086,�k��,2.1,��
2019/12/28,03:20,0.181,0.161,0.275,0.256,0.252,0.139,0.086,�k�k��,2.4,��
2019/12/28,03:30,0.180,0.162,0.276,0.255,0.252,0.139,0.086,���k��,1.6,��
2019/12/28,03:40,0.180,0.161,0.276,0.254,0.252,0.139,0.086,���k��,1.5,��
2019/12/28,03:50,0.181,0.162,0.275,0.255,0.253,0.139,0.085,���k��,2.7,��
2019/12/28,04:00,0.181,0.162,0.275,0.255,0.251,0.139,0.086,���k��,3.2,��
2019/12/28,04:10,0.180,0.162,0.275,0.254,0.252,0.140,0.086,�k��,4.0,��
2019/12/28,04:20,0.181,0.162,0.275,0.255,0.252,0.139,0.085,�k��,3.2,��
2019/12/28,04:30,0.180,0.161,0.275,0.256,0.251,0.139,0.086,���k��,5.3,��
2019/12/28,04:40,0.181,0.161,0.275,0.254,0.251,0.140,0.085,���k��,5.3,��
2019/12/28,04:50,0.181,0.162,0.274,0.255,0.252,0.139,0.086,���k��,5.3,��
2019/12/28,05:00,0.180,0.161,0.273,0.255,0.251,0.138,0.085,���k��,3.4,��
2019/12/28,05:10,0.181,0.162,0.276,0.256,0.252,0.138,0.085,�k��,3.1,��
2019/12/28,05:20,0.181,0.161,0.275,0.255,0.250,0.139,0.086,���k��,4.8,��
2019/12/28,05:30,0.179,0.162,0.275,0.254,0.251,0.139,0.086,���k��,5.6,��
2019/12/28,05:40,0.180,0.162,0.276,0.255,0.252,0.139,0.086,���k��,5.5,��
2019/12/28,05:50,0.181,0.162,0.275,0.254,0.250,0.139,0.086,���k��,6.1,��
2019/12/28,06:00,0.181,0.161,0.275,0.253,0.251,0.139,0.085,���k��,7.0,��
2019/12/28,06:10,0.180,0.162,0.276,0.254,0.251,0.139,0.085,���k��,6.6,��
2019/12/28,06:20,0.180,0.163,0.275,0.254,0.251,0.138,0.085,���k��,5.1,��
2019/12/28,06:30,0.181,0.161,0.275,0.253,0.251,0.139,0.085,���k��,4.8,��
2019/12/28,06:40,0.179,0.161,0.276,0.254,0.252,0.138,0.086,���k��,5.1,��
2019/12/28,06:50,0.181,0.162,0.276,0.255,0.252,0.140,0.086,���k��,5.9,��
2019/12/28,07:00,0.180,0.162,0.275,0.255,0.250,0.139,0.085,���k��,5.9,��
2019/12/28,07:10,0.181,0.161,0.275,0.254,0.251,0.139,0.085,���k��,4.9,��
2019/12/28,07:20,0.181,0.162,0.275,0.254,0.252,0.138,0.085,���k��,5.0,��
2019/12/28,07:30,0.180,0.162,0.276,0.254,0.251,0.139,0.086,���k��,5.0,��
2019/12/28,07:40,0.180,0.162,0.275,0.254,0.251,0.139,0.085,���k��,5.3,��
2019/12/28,07:50,0.180,0.161,0.274,0.255,0.251,0.138,0.085,���k��,3.4,��
2019/12/28,08:00,0.179,0.162,0.276,0.254,0.252,0.139,0.086,���k��,2.9,��
2019/12/28,08:10,0.180,0.162,0.275,0.254,0.251,0.138,0.084,�k��,2.5,��
2019/12/28,08:20,0.180,0.163,0.275,0.254,0.251,0.140,0.085,�k��,2.7,��
2019/12/28,08:30,0.181,0.161,0.275,0.254,0.252,0.139,0.085,�k��,3.0,��
2019/12/28,08:40,0.180,0.161,0.275,0.253,0.251,0.139,0.085,���k��,2.4,��
2019/12/28,08:50,0.179,0.161,0.275,0.254,0.251,0.139,0.085,�k��,2.1,��
2019/12/28,09:00,0.180,0.162,0.274,0.254,0.252,0.138,0.084,�k��,2.6,��
2019/12/28,09:10,0.179,0.162,0.275,0.253,0.252,0.139,0.085,�k�k��,3.0,��
2019/12/28,09:20,0.180,0.161,0.274,0.254,0.251,0.138,0.085,�k,2.0,��
2019/12/28,09:30,0.181,0.160,0.274,0.253,0.250,0.139,0.086,�k�k��,2.8,��
2019/12/28,09:40,0.180,0.162,0.274,0.253,0.252,0.138,0.085,�k��,2.2,��
2019/12/28,09:50,0.181,0.161,0.274,0.254,0.252,0.139,0.086,�k�k��,1.7,��
2019/12/28,10:00,0.181,0.160,0.275,0.253,0.251,0.140,0.085,�k�k��,1.8,��
2019/12/28,10:10,0.180,0.162,0.275,0.254,0.252,0.140,0.085,�k�k��,2.7,��
2019/12/28,10:20,0.180,0.161,0.274,0.253,0.252,0.139,0.085,�k��,2.9,��
2019/12/28,10:30,0.179,0.161,0.275,0.254,0.252,0.139,0.086,���k��,1.5,��
2019/12/28,10:40,0.181,0.160,0.275,0.255,0.253,0.139,0.085,�k��,3.0,��
2019/12/28,10:50,0.181,0.162,0.275,0.253,0.250,0.139,0.086,��,4.1,��
2019/12/28,11:00,0.180,0.162,0.274,0.253,0.252,0.139,0.086,�k�k��,2.8,��
2019/12/28,11:10,0.180,0.161,0.275,0.256,0.253,0.139,0.085,�k�k��,0.9,��
2019/12/28,11:20,0.179,0.162,0.274,0.256,0.250,0.139,0.085,���k��,2.5,��
2019/12/28,11:30,0.180,0.162,0.275,0.255,0.253,0.139,0.086,�k��,4.8,��
2019/12/28,11:40,0.180,0.161,0.274,0.256,0.251,0.139,0.086,�k��,4.1,��
2019/12/28,11:50,0.180,0.162,0.274,0.256,0.252,0.139,0.085,�k��,4.4,��
2019/12/28,12:00,0.179,0.162,0.275,0.254,0.251,0.138,0.085,���k��,4.8,��
2019/12/28,12:10,0.180,0.162,0.274,0.255,0.253,0.139,0.085,���k��,4.0,��
2019/12/28,12:20,0.182,0.162,0.275,0.255,0.252,0.138,0.085,��,3.5,��
2019/12/28,12:30,0.180,0.163,0.274,0.255,0.251,0.138,0.086,���k��,2.8,��
2019/12/28,12:40,0.180,0.161,0.275,0.254,0.254,0.139,0.085,���k��,2.8,��
2019/12/28,12:50,0.181,0.162,0.274,0.255,0.252,0.139,0.085,�k�k��,3.2,��
2019/12/28,13:00,0.180,0.162,0.274,0.254,0.252,0.139,0.085,�k,3.3,�L
2019/12/28,13:10,0.180,0.162,0.275,0.255,0.252,0.139,0.086,�k�k��,3.4,�L
2019/12/28,13:20,0.181,0.163,0.275,0.255,0.251,0.139,0.086,�k,5.7,�L
2019/12/28,13:30,0.181,0.162,0.275,0.255,0.252,0.139,0.086,�k,4.1,��
2019/12/28,13:40,0.181,0.162,0.276,0.255,0.253,0.140,0.086,�k�k��,3.6,��
2019/12/28,13:50,0.180,0.162,0.275,0.256,0.253,0.139,0.086,�k,2.8,�L
2019/12/28,14:00,0.181,0.162,0.276,0.256,0.252,0.139,0.086,�k�k��,0.8,��
2019/12/28,14:10,0.181,0.162,0.275,0.254,0.252,0.139,0.085,�k�k��,0.6,��
2019/12/28,14:20,0.180,0.162,0.275,0.255,0.251,0.140,0.086,��,0.9,��
2019/12/28,14:30,0.180,0.163,0.275,0.256,0.253,0.140,0.085,�k�k��,0.8,��
2019/12/28,14:40,0.181,0.162,0.276,0.255,0.253,0.139,0.084,�k��,0.6,��
2019/12/28,14:50,0.180,0.162,0.275,0.254,0.252,0.140,0.085,-,CALM,��
2019/12/28,15:00,0.180,0.162,0.274,0.256,0.253,0.138,0.085,���쓌,0.9,��
2019/12/28,15:10,0.181,0.162,0.275,0.255,0.251,0.140,0.086,-,CALM,��
2019/12/28,15:20,0.180,0.162,0.275,0.254,0.251,0.139,0.086,-,CALM,��
2019/12/28,15:30,0.181,0.162,0.275,0.255,0.251,0.139,0.086,-,CALM,��
2019/12/28,15:40,0.181,0.162,0.274,0.256,0.252,0.139,0.086,-,CALM,��
2019/12/28,15:50,0.181,0.162,0.275,0.255,0.253,0.139,0.085,�k,1.0,��
2019/12/28,16:00,0.181,0.160,0.275,0.255,0.252,0.139,0.086,�k,1.4,��
2019/12/28,16:10,0.181,0.161,0.274,0.256,0.253,0.139,0.086,�k�k��,2.3,��
2019/12/28,16:20,0.180,0.162,0.276,0.256,0.251,0.139,0.085,�k�k��,2.4,��
2019/12/28,16:30,0.180,0.162,0.276,0.255,0.251,0.138,0.085,�k�k��,3.8,��
2019/12/28,16:40,0.181,0.162,0.274,0.256,0.253,0.140,0.085,�k��,4.2,��
2019/12/28,16:50,0.180,0.163,0.274,0.254,0.253,0.140,0.085,�k��,3.2,��
2019/12/28,17:00,0.181,0.162,0.276,0.255,0.251,0.140,0.086,�k��,1.9,��
2019/12/28,17:10,0.181,0.162,0.276,0.255,0.252,0.139,0.086,�k��,1.2,��
2019/12/28,17:20,0.181,0.162,0.274,0.255,0.254,0.137,0.086,��,0.7,��
2019/12/28,17:30,0.181,0.162,0.273,0.256,0.252,0.139,0.085,���k��,1.0,��
2019/12/28,17:40,0.180,0.162,0.275,0.256,0.252,0.139,0.086,�k��,1.2,��
2019/12/28,17:50,0.181,0.162,0.276,0.255,0.253,0.140,0.086,���k��,2.0,��
2019/12/28,18:00,0.181,0.163,0.276,0.256,0.253,0.139,0.086,���k��,2.3,��
2019/12/28,18:10,0.181,0.162,0.276,0.256,0.252,0.139,0.085,���k��,3.6,��
2019/12/28,18:20,0.180,0.163,0.277,0.255,0.251,0.139,0.086,��,4.1,��
2019/12/28,18:30,0.180,0.162,0.275,0.255,0.253,0.139,0.085,��,5.9,��
2019/12/28,18:40,0.181,0.161,0.274,0.255,0.252,0.139,0.084,��,6.4,��
2019/12/28,18:50,0.181,0.162,0.274,0.255,0.252,0.140,0.086,��,5.0,��
2019/12/28,19:00,0.181,0.162,0.275,0.256,0.252,0.139,0.086,��,5.3,��
2019/12/28,19:10,0.181,0.162,0.276,0.255,0.253,0.140,0.085,��,4.2,��
2019/12/28,19:20,0.180,0.162,0.274,0.256,0.252,0.139,0.087,��,4.4,��
2019/12/28,19:30,0.181,0.161,0.275,0.255,0.252,0.139,0.085,��,4.7,��
2019/12/28,19:40,0.181,0.163,0.276,0.256,0.252,0.139,0.085,��,5.6,��
2019/12/28,19:50,0.181,0.163,0.275,0.255,0.252,0.140,0.086,���k��,4.7,��
2019/12/28,20:00,0.180,0.163,0.275,0.256,0.253,0.140,0.086,���k��,4.5,��
2019/12/28,20:10,0.180,0.162,0.275,0.255,0.252,0.139,0.085,���k��,3.9,��
2019/12/28,20:20,0.182,0.163,0.275,0.255,0.253,0.139,0.085,��,4.3,��
2019/12/28,20:30,0.182,0.162,0.275,0.255,0.252,0.138,0.086,���k��,3.8,��
2019/12/28,20:40,0.181,0.162,0.275,0.255,0.252,0.139,0.086,��,3.5,��
2019/12/28,20:50,0.180,0.162,0.277,0.255,0.251,0.139,0.086,��,3.3,��
2019/12/28,21:00,0.180,0.162,0.275,0.254,0.252,0.139,0.086,��,2.5,��
2019/12/28,21:10,0.181,0.162,0.275,0.257,0.252,0.140,0.085,��,2.2,��
2019/12/28,21:20,0.181,0.163,0.275,0.255,0.251,0.140,0.085,��,2.0,��
2019/12/28,21:30,0.181,0.163,0.275,0.255,0.252,0.140,0.086,���쐼,2.2,��
2019/12/28,21:40,0.181,0.162,0.276,0.255,0.252,0.140,0.086,���쐼,2.3,��
2019/12/28,21:50,0.181,0.163,0.275,0.254,0.252,0.139,0.086,��,3.1,��
2019/12/28,22:00,0.181,0.163,0.275,0.256,0.252,0.139,0.085,��,3.1,��
2019/12/28,22:10,0.182,0.163,0.275,0.256,0.251,0.139,0.086,��,3.9,��
2019/12/28,22:20,0.180,0.162,0.274,0.255,0.253,0.139,0.087,��,3.3,��
2019/12/28,22:30,0.181,0.163,0.275,0.255,0.252,0.140,0.086,���k��,3.1,��
2019/12/28,22:40,0.180,0.162,0.275,0.256,0.254,0.139,0.086,���k��,2.8,��
2019/12/28,22:50,0.181,0.163,0.275,0.255,0.252,0.138,0.086,���k��,2.5,��
2019/12/28,23:00,0.180,0.162,0.276,0.255,0.253,0.140,0.086,���k��,2.4,��
2019/12/28,23:10,0.181,0.163,0.275,0.255,0.253,0.140,0.086,���k��,2.0,��
2019/12/28,23:20,0.181,0.162,0.276,0.256,0.253,0.139,0.087,���k��,1.5,��
2019/12/28,23:30,0.181,0.162,0.277,0.256,0.252,0.139,0.086,��,1.8,��
2019/12/28,23:40,0.181,0.163,0.277,0.256,0.252,0.139,0.086,��,1.7,��
2019/12/28,23:50,0.181,0.163,0.276,0.256,0.252,0.140,0.086,�k��,1.0,��
